• en France
  • Liste des pays
  • À 7 jours
  • Température de l'eau
  • Carte satellitaire
  • Carte météo
  • Widgets météo
  • user-avatar
    Se connecter

    Météo par heure à Kardjali

    Ce jour, 17 Juillet, Mardi

    Heure Température Précipitation Vent Pression Humidité
    00:00 +22°C° 0 mm 1 m/s 724 mmHg 65%
    01:00 +22°C° 0 mm 1 m/s 724 mmHg 66%
    02:00 +21°C° 0 mm 2 m/s 723 mmHg 70%
    03:00 +21°C° 0 mm 1 m/s 723 mmHg 71%
    04:00 +21°C° 0 mm 1 m/s 723 mmHg 72%
    05:00 +21°C° 0 mm 1 m/s 722 mmHg 73%
    06:00 +23°C° 0 mm 1 m/s 722 mmHg 67%
    07:00 +25°C° 0 mm 1 m/s 723 mmHg 61%
    08:00 +27°C° 0 mm 1 m/s 723 mmHg 55%
    09:00 +28°C° 0 mm 2 m/s 723 mmHg 51%
    10:00 +30°C° 0 mm 2 m/s 722 mmHg 46%
    11:00 +31°C° 0 mm 3 m/s 722 mmHg 42%
    12:00 +31°C° 0,2 mm 3 m/s 722 mmHg 42%
    13:00 +33°C° 0,2 mm 3 m/s 722 mmHg 42%
    14:00 +33°C° 0,2 mm 3 m/s 721 mmHg 42%
    15:00 +31°C° 0,1 mm 3 m/s 721 mmHg 44%
    16:00 +31°C° 0,1 mm 3 m/s 721 mmHg 46%
    17:00 +31°C° 0,1 mm 3 m/s 720 mmHg 48%
    18:00 +28°C° 0,8 mm 3 m/s 720 mmHg 57%
    19:00 +26°C° 0,8 mm 2 m/s 720 mmHg 65%
    20:00 +24°C° 0,8 mm 2 m/s 720 mmHg 73%
    21:00 +24°C° 1,4 mm 2 m/s 720 mmHg 77%
    22:00 +23°C° 1,4 mm 2 m/s 720 mmHg 80%
    23:00 +22°C° 1,4 mm 1 m/s 720 mmHg 84%

    Demain, 18 Juillet, Mercredi

    Heure Température Précipitation Vent Pression Humidité
    00:00 +21°C° 0,1 mm 2 m/s 720 mmHg 85%
    01:00 +20°C° 0,1 mm 2 m/s 720 mmHg 86%
    02:00 +20°C° 0,1 mm 2 m/s 720 mmHg 86%
    03:00 +19°C° 0,2 mm 2 m/s 720 mmHg 87%
    04:00 +19°C° 0,2 mm 2 m/s 720 mmHg 88%
    05:00 +19°C° 0,2 mm 3 m/s 720 mmHg 88%
    06:00 +20°C° 0 mm 3 m/s 720 mmHg 80%
    07:00 +22°C° 0 mm 3 m/s 721 mmHg 72%
    08:00 +23°C° 0 mm 4 m/s 721 mmHg 63%
    09:00 +26°C° 0 mm 4 m/s 721 mmHg 56%
    10:00 +27°C° 0 mm 4 m/s 721 mmHg 48%
    11:00 +29°C° 0 mm 4 m/s 722 mmHg 41%
    12:00 +30°C° 0 mm 4 m/s 721 mmHg 40%
    13:00 +30°C° 0 mm 4 m/s 721 mmHg 40%
    14:00 +30°C° 0 mm 5 m/s 721 mmHg 40%
    15:00 +30°C° 0,2 mm 4 m/s 721 mmHg 41%
    16:00 +30°C° 0,2 mm 4 m/s 721 mmHg 42%
    17:00 +29°C° 0,2 mm 4 m/s 721 mmHg 44%
    18:00 +27°C° 0,1 mm 4 m/s 721 mmHg 48%
    19:00 +26°C° 0,1 mm 4 m/s 721 mmHg 52%
    20:00 +24°C° 0,1 mm 3 m/s 721 mmHg 56%
    21:00 +22°C° 0 mm 3 m/s 721 mmHg 57%
    22:00 +21°C° 0 mm 3 m/s 721 mmHg 58%
    23:00 +21°C° 0 mm 4 m/s 721 mmHg 59%

    Après-demain, 19 Juillet, Jeudi

    Heure Température Précipitation Vent Pression Humidité
    00:00 +20°C° 0 mm 3 m/s 721 mmHg 60%
    01:00 +20°C° 0 mm 3 m/s 721 mmHg 61%
    02:00 +19°C° 0 mm 3 m/s 721 mmHg 61%
    03:00 +19°C° 0 mm 3 m/s 721 mmHg 62%
    04:00 +19°C° 0 mm 3 m/s 721 mmHg 63%
    05:00 +19°C° 0 mm 3 m/s 721 mmHg 64%
    06:00 +20°C° 0 mm 3 m/s 721 mmHg 60%
    07:00 +22°C° 0 mm 3 m/s 721 mmHg 57%
    08:00 +24°C° 0 mm 3 m/s 721 mmHg 53%
    09:00 +25°C° 0 mm 3 m/s 722 mmHg 51%
    10:00 +27°C° 0 mm 3 m/s 722 mmHg 49%
    11:00 +28°C° 0 mm 3 m/s 722 mmHg 47%
    12:00 +28°C° 0 mm 3 m/s 722 mmHg 47%
    13:00 +28°C° 0 mm 3 m/s 722 mmHg 47%
    14:00 +28°C° 0 mm 3 m/s 722 mmHg 47%
    15:00 +28°C° 0 mm 3 m/s 721 mmHg 47%
    16:00 +28°C° 0 mm 3 m/s 721 mmHg 47%
    17:00 +28°C° 0 mm 3 m/s 721 mmHg 47%
    18:00 +27°C° 0 mm 3 m/s 721 mmHg 53%
    19:00 +25°C° 0 mm 2 m/s 722 mmHg 58%
    20:00 +24°C° 0 mm 2 m/s 722 mmHg 63%
    21:00 +23°C° 0 mm 2 m/s 722 mmHg 65%
    22:00 +21°C° 0 mm 2 m/s 722 mmHg 67%
    23:00 +20°C° 0 mm 2 m/s 722 mmHg 68%

    20 Juillet, Vendredi

    Heure Température Précipitation Vent Pression Humidité
    00:00 +20°C° 0 mm 2 m/s 722 mmHg 69%
    01:00 +20°C° 0 mm 2 m/s 722 mmHg 70%
    02:00 +19°C° 0 mm 2 m/s 722 mmHg 71%
    03:00 +19°C° 0 mm 2 m/s 722 mmHg 71%
    04:00 +19°C° 0 mm 2 m/s 722 mmHg 72%
    05:00 +18°C° 0 mm 2 m/s 722 mmHg 72%
    06:00 +20°C° 0 mm 2 m/s 722 mmHg 68%
    07:00 +23°C° 0 mm 2 m/s 723 mmHg 63%
    08:00 +25°C° 0 mm 2 m/s 723 mmHg 58%
    09:00 +26°C° 0 mm 2 m/s 723 mmHg 55%
    10:00 +28°C° 0 mm 2 m/s 723 mmHg 52%
    11:00 +29°C° 0 mm 2 m/s 724 mmHg 49%
    12:00 +30°C° 0,2 mm 2 m/s 723 mmHg 48%
    13:00 +30°C° 0,2 mm 2 m/s 723 mmHg 47%
    14:00 +31°C° 0,2 mm 2 m/s 723 mmHg 47%
    15:00 +30°C° 0,5 mm 2 m/s 723 mmHg 49%
    16:00 +30°C° 0,5 mm 2 m/s 723 mmHg 50%
    17:00 +29°C° 0,5 mm 2 m/s 723 mmHg 52%
    18:00 +28°C° 0,2 mm 2 m/s 723 mmHg 57%
    19:00 +27°C° 0,2 mm 2 m/s 723 mmHg 61%
    20:00 +25°C° 0,2 mm 2 m/s 723 mmHg 65%
    21:00 +24°C° 0,1 mm 2 m/s 723 mmHg 68%
    22:00 +24°C° 0,1 mm 2 m/s 723 mmHg 71%
    23:00 +23°C° 0,1 mm 2 m/s 723 mmHg 74%

    21 Juillet, Samedi

    Heure Température Précipitation Vent Pression Humidité
    00:00 +21°C° 0 mm 2 m/s 723 mmHg 74%
    01:00 +21°C° 0 mm 2 m/s 723 mmHg 75%
    02:00 +21°C° 0 mm 2 m/s 723 mmHg 76%
    03:00 +20°C° 0 mm 2 m/s 723 mmHg 77%
    04:00 +20°C° 0 mm 2 m/s 723 mmHg 77%
    05:00 +20°C° 0 mm 2 m/s 723 mmHg 77%
    06:00 +21°C° 0 mm 2 m/s 723 mmHg 71%
    07:00 +24°C° 0 mm 2 m/s 724 mmHg 65%
    08:00 +26°C° 0 mm 2 m/s 724 mmHg 59%
    09:00 +27°C° 0 mm 2 m/s 724 mmHg 54%
    10:00 +29°C° 0 mm 2 m/s 724 mmHg 49%
    11:00 +30°C° 0 mm 2 m/s 724 mmHg 45%
    12:00 +31°C° 0,1 mm 2 m/s 724 mmHg 43%
    13:00 +31°C° 0,1 mm 2 m/s 724 mmHg 42%
    14:00 +32°C° 0,1 mm 2 m/s 723 mmHg 41%
    15:00 +32°C° 0 mm 2 m/s 723 mmHg 41%
    16:00 +32°C° 0 mm 2 m/s 723 mmHg 41%
    17:00 +32°C° 0 mm 2 m/s 723 mmHg 41%
    18:00 +30°C° 0 mm 2 m/s 723 mmHg 47%
    19:00 +28°C° 0 mm 1 m/s 723 mmHg 53%
    20:00 +26°C° 0 mm 1 m/s 723 mmHg 59%
    21:00 +25°C° 0 mm 1 m/s 723 mmHg 61%
    22:00 +24°C° 0 mm 1 m/s 723 mmHg 62%
    23:00 +24°C° 0 mm 1 m/s 723 mmHg 64%

    22 Juillet, Dimanche

    Heure Température Précipitation Vent Pression Humidité
    00:00 +23°C° 0 mm 1 m/s 723 mmHg 64%
    01:00 +23°C° 0 mm 1 m/s 723 mmHg 64%
    02:00 +22°C° 0 mm 1 m/s 722 mmHg 65%
    03:00 +22°C° 0 mm 1 m/s 722 mmHg 66%
    04:00 +22°C° 0 mm 1 m/s 722 mmHg 67%
    05:00 +21°C° 0 mm 1 m/s 722 mmHg 68%
    06:00 +23°C° 0 mm 1 m/s 722 mmHg 63%
    07:00 +25°C° 0 mm 1 m/s 722 mmHg 57%
    08:00 +27°C° 0 mm 1 m/s 723 mmHg 52%
    09:00 +29°C° 0 mm 1 m/s 722 mmHg 48%
    10:00 +30°C° 0 mm 1 m/s 722 mmHg 44%
    11:00 +31°C° 0 mm 2 m/s 722 mmHg 39%
    12:00 +32°C° 0,2 mm 2 m/s 722 mmHg 38%
    13:00 +32°C° 0,2 mm 2 m/s 722 mmHg 37%
    14:00 +34°C° 0,2 mm 2 m/s 721 mmHg 36%
    15:00 +34°C° 0,2 mm 2 m/s 721 mmHg 37%
    16:00 +32°C° 0,2 mm 2 m/s 721 mmHg 38%
    17:00 +32°C° 0,2 mm 2 m/s 720 mmHg 39%
    18:00 +30°C° 0,3 mm 2 m/s 720 mmHg 44%
    19:00 +28°C° 0,3 mm 2 m/s 720 mmHg 50%
    20:00 +26°C° 0,3 mm 1 m/s 720 mmHg 55%
    21:00 +26°C° 0,6 mm 2 m/s 720 mmHg 59%
    22:00 +25°C° 0,6 mm 2 m/s 720 mmHg 64%
    23:00 +24°C° 0,6 mm 3 m/s 720 mmHg 69%
    Voir plus